Wind_Speed
26 25 24 23 20 17 16 14 12 10 11 14 17 19 21 22 22 22 22 22 22 22 22 21 21 20 19 20 19 19 20 20 21 23 24 24 26 26 24 23 22 21 21
11 11 10 10 8 7 6 6 6 8 11 13 15 17 18 19 19 19 19 20 20 20 21 20 20 19 18 19 19 19 19 19 20 21 23 24 26 28 27 26 23 22 21
5 4 3 3 3 3 3 4 6 8 10 12 15 16 17 18 18 18 19 19 20 20 20 20 20 19 18 19 19 20 20 20 21 21 22 25 26 27 28 27 27 25 24
4 3 2 2 0 1 3 4 6 8 10 13 15 16 17 18 18 18 19 19 20 20 21 21 21 20 20 20 20 20 20 20 21 22 22 23 25 26 28 30 30 29 28
4 3 2 1 2 3 5 7 8 11 13 15 16 17 18 18 18 19 19 20 21 21 22 22 22 22 22 21 21 21 21 20 21 21 22 21 22 24 26 28 28 29 30
6 5 5 5 5 7 8 10 12 14 16 17 18 19 20 19 19 20 20 21 22 22 22 23 24 24 23 23 23 23 23 22 22 21 21 22 22 21 22 24 25 27 28
6 6 7 8 9 10 12 13 15 16 17 19 20 20 21 21 21 21 21 21 22 23 23 24 23 24 25 25 25 25 24 24 23 23 22 22 23 24 24 24 25 26 27
9 9 10 11 12 13 15 16 17 18 19 20 21 21 21 21 21 21 21 22 23 23 24 24 24 24 24 25 25 26 26 25 25 24 24 24 24 24 25 25 25 25 26
12 12 12 13 14 14 15 17 18 19 20 21 21 22 22 22 22 22 22 23 23 24 24 23 23 23 23 24 25 25 25 26 26 26 25 25 24 24 24 25 25 26 26
12 12 12 13 13 14 15 17 18 19 19 20 21 22 22 22 22 22 23 23 24 24 24 23 24 24 23 23 24 24 24 24 24 24 25 24 24 24 24 25 25 26 26
13 13 13 13 13 14 15 16 16 17 18 18 19 19 20 20 21 22 22 23 24 24 24 24 24 24 24 23 23 22 22 22 22 22 22 22 22 23 23 24 25 25 26
15 15 15 15 15 16 16 15 15 14 15 16 16 17 18 19 20 21 21 22 23 23 24 24 24 25 25 24 24 22 21 21 20 19 19 19 19 20 21 22 22 24 25
17 17 17 17 17 17 17 16 15 15 15 15 16 16 17 17 18 19 18 19 19 20 22 23 24 24 25 25 25 23 22 20 19 18 17 17 17 18 19 20 22 23 24
18 18 19 19 19 18 18 18 17 17 17 17 16 16 16 15 14 14 14 15 15 17 18 19 20 22 23 24 24 23 22 20 19 17 16 16 16 17 18 20 21 23 24
18 18 19 19 20 20 19 19 20 19 19 18 17 16 14 12 11 11 12 11 12 12 12 12 12 14 17 19 20 20 20 18 17 16 16 16 16 17 18 19 20 22 23
17 18 18 19 20 20 20 21 21 21 21 21 19 16 13 11 10 10 10 10 10 9 8 5 2 3 8 11 14 16 16 16 15 14 13 13 14 15 16 17 18 19 20
17 17 18 19 19 20 21 22 22 22 23 23 22 20 17 15 14 13 13 14 13 12 12 11 10 9 9 10 10 11 10 10 9 8 8 9 10 11 12 14 16 19 21
17 17 18 18 19 20 21 22 23 23 23 23 23 23 22 21 19 18 18 18 18 19 19 17 17 16 15 14 13 11 9 7 4 2 2 4 6 8 11 14 16 18 20
16 17 17 18 18 19 20 22 23 24 24 24 24 24 24 24 24 23 22 22 22 23 22 22 21 20 19 18 16 14 12 9 7 5 4 4 6 8 10 12 15 17 19
15 16 17 17 18 18 18 20 21 23 24 24 25 25 25 24 24 25 25 25 25 25 25 24 24 23 22 20 18 16 14 12 10 8 7 7 7 9 10 12 14 16 17
14 15 16 17 17 17 17 17 18 20 21 23 23 23 23 23 23 23 23 23 24 24 24 24 23 23 22 20 18 16 15 13 12 11 10 9 10 10 11 13 14 16 17
12 14 15 17 17 17 16 16 16 16 18 19 20 21 21 22 22 22 21 21 21 21 21 21 21 20 19 18 17 16 15 14 13 12 12 12 12 12 13 14 15 17 18
9 11 13 15 16 16 16 15 15 14 15 16 16 17 18 19 19 19 19 19 19 18 18 18 18 17 17 16 16 15 14 13 13 13 13 13 13 14 15 16 17 18 20
7 8 11 13 15 15 15 14 13 13 13 13 14 14 15 16 16 17 17 17 16 16 16 16 15 15 14 14 13 13 13 12 12 12 12 12 13 14 15 16 18 19 21
5 6 8 10 13 14 14 13 12 12 12 12 12 12 13 13 14 15 15 15 15 15 15 15 14 14 14 13 13 12 12 12 12 12 12 12 13 14 15 17 18 20 21
4 4 6 8 10 12 13 13 12 11 11 11 11 11 11 11 12 13 13 14 14 14 14 14 15 15 15 14 14 14 13 13 13 13 13 13 14 15 16 17 18 20 22
Wind_Direction
268 270 266 259 243 224 216 217 221 229 240 250 257 260 263 265 267 269 269 268 266 264 262 263 264 263 262 262 261 259 259 255 252 249 248 245 238 234 236 240 243 244 246
245 241 224 215 208 210 217 223 232 245 251 256 260 263 266 269 271 272 271 270 267 264 263 262 261 260 258 257 257 257 256 254 252 248 246 243 238 235 236 238 240 243 246
167 172 171 176 188 217 248 255 255 257 260 266 268 271 273 274 276 276 275 273 269 266 264 263 261 260 257 255 255 254 253 253 252 252 249 244 240 237 235 235 239 243 246
98 89 105 106 161 256 266 271 269 270 274 275 275 277 278 277 277 278 276 274 271 267 265 263 262 260 258 255 254 252 252 253 252 251 251 249 243 240 239 240 242 245 248
29 16 10 332 296 286 281 277 281 283 284 283 281 280 280 278 278 278 277 276 273 270 266 263 262 260 258 256 254 253 253 252 252 252 250 251 249 246 245 244 246 249 252
352 346 336 313 297 287 283 282 283 286 286 286 284 282 280 280 278 277 277 277 276 273 269 265 262 260 258 256 255 254 253 253 252 252 251 252 253 251 251 249 251 253 254
349 334 319 306 299 293 289 287 287 288 288 287 286 285 284 282 279 278 278 276 274 272 269 266 264 260 258 256 255 253 252 252 251 251 250 252 254 256 257 258 259 259 257
341 329 318 309 303 298 295 293 292 291 290 289 288 288 287 284 282 280 278 276 273 271 269 267 264 261 259 256 254 252 251 251 251 251 251 252 254 257 260 262 263 263 262
338 330 322 314 309 305 301 298 296 294 292 291 290 290 289 287 284 281 279 277 275 273 269 267 264 262 259 255 254 252 250 249 250 251 253 254 256 259 261 262 264 265 266
350 343 336 328 321 314 309 305 301 298 296 294 292 291 290 288 286 284 281 279 277 274 270 267 263 261 258 255 254 252 249 249 250 251 253 254 256 259 260 261 263 265 266
10 4 356 348 340 333 326 320 313 307 304 301 299 297 294 291 289 287 284 280 277 273 270 267 262 257 255 254 251 249 249 249 250 252 254 256 258 259 261 263 264 264 265
19 14 9 4 359 354 348 342 335 326 319 314 310 306 302 298 295 293 288 282 278 274 271 268 263 257 254 252 249 247 248 248 249 252 255 258 260 262 264 265 265 265 263
27 25 23 19 15 10 5 359 352 344 336 329 322 316 310 305 301 298 293 287 283 279 274 269 263 257 252 249 248 245 245 245 247 251 255 260 264 266 268 269 269 269 268
33 32 29 26 23 19 15 10 4 356 348 341 334 326 320 316 313 312 308 302 295 289 283 273 265 257 249 244 241 239 239 240 244 249 256 264 271 274 276 277 277 276 276
36 34 32 29 26 22 18 14 10 5 359 354 348 342 338 336 333 330 328 325 320 313 302 287 271 254 242 235 232 232 231 234 239 247 258 268 276 281 282 284 284 284 284
33 31 29 27 24 22 19 16 13 11 10 8 7 8 9 8 5 4 6 4 1 2 3 1 327 216 207 208 210 213 218 226 235 245 260 273 280 284 287 289 290 290 290
27 27 27 26 24 23 23 22 20 20 22 24 26 31 37 42 45 45 43 40 45 52 58 65 78 101 126 147 162 175 190 204 220 238 258 274 283 288 292 296 298 299 298
25 26 26 26 26 27 28 28 29 30 31 34 40 46 51 55 57 59 58 60 64 66 70 74 83 92 102 112 120 127 135 144 156 182 270 300 307 309 310 311 310 309 307
24 25 26 27 28 29 31 33 35 36 39 44 49 53 56 60 62 64 66 67 68 69 73 77 81 86 92 96 100 103 103 102 94 74 41 3 344 335 331 329 327 324 321
25 25 26 27 27 29 32 35 37 41 45 49 53 56 59 62 64 66 66 68 70 72 74 77 79 82 85 87 88 88 86 81 73 63 50 35 19 6 357 351 347 344 339
29 29 28 27 27 28 31 35 40 43 47 50 53 56 59 61 63 65 67 69 70 72 73 75 76 78 78 79 79 79 77 74 69 62 55 45 35 25 16 9 3 358 354
34 33 31 28 27 27 30 34 39 43 46 50 53 56 58 60 61 63 65 67 69 71 72 74 74 74 75 76 76 76 74 71 67 62 56 49 42 35 28 22 16 11 6
37 32 28 26 26 26 28 32 38 43 46 48 51 54 56 57 59 60 61 63 65 66 67 68 69 69 70 70 70 69 67 64 61 57 53 47 42 37 32 26 21 17 13
31 28 24 24 23 23 25 27 31 38 43 45 47 50 53 54 55 56 57 58 59 60 60 61 61 61 61 60 59 57 55 52 49 46 44 40 36 32 27 23 20 17 15
11 17 16 17 19 21 22 23 24 30 37 41 43 46 49 51 51 52 52 53 54 55 55 56 54 53 52 50 48 45 42 39 37 35 33 30 28 24 21 19 17 15 14
334 349 359 6 12 16 18 18 19 21 27 33 37 41 45 47 48 49 50 50 51 52 52 52 51 50 49 47 44 41 37 34 31 29 26 24 21 18 16 15 14 13 13
Height
5792 5792 5791 5792 5792 5792 5793 5794 5796 5798 5801 5803 5805 5806 5807 5807 5807 5806 5805 5804 5803 5802 5802 5802 5802 5801 5801 5801 5801 5802 5802 5803 5803 5804 5805 5806 5809 5811 5814 5816 5818 5820 5822
5787 5787 5788 5788 5789 5790 5791 5792 5794 5796 5798 5799 5800 5801 5801 5801 5800 5800 5798 5798 5797 5796 5796 5796 5796 5795 5795 5796 5796 5797 5797 5798 5799 5799 5800 5801 5804 5806 5809 5811 5813 5815 5817
5785 5786 5786 5786 5787 5788 5789 5790 5791 5793 5794 5795 5796 5796 5796 5795 5794 5793 5792 5792 5791 5791 5790 5790 5790 5790 5790 5790 5791 5792 5792 5793 5794 5795 5795 5797 5799 5801 5803 5806 5808 5810 5812
5784 5785 5785 5785 5786 5786 5787 5788 5789 5790 5791 5791 5791 5790 5790 5789 5788 5787 5786 5786 5785 5784 5784 5784 5783 5784 5784 5785 5786 5786 5787 5788 5789 5790 5790 5792 5793 5795 5798 5800 5802 5804 5806
5784 5784 5785 5785 5785 5786 5786 5786 5787 5787 5786 5786 5785 5785 5784 5783 5783 5782 5780 5779 5778 5777 5777 5777 5777 5777 5778 5779 5780 5781 5782 5783 5784 5785 5785 5786 5788 5789 5792 5793 5796 5798 5800
5784 5784 5784 5785 5784 5784 5784 5784 5783 5782 5781 5781 5780 5779 5778 5777 5777 5776 5774 5773 5772 5771 5771 5771 5771 5771 5771 5773 5774 5775 5776 5777 5779 5780 5780 5781 5782 5784 5786 5787 5789 5791 5793
5785 5784 5784 5783 5782 5782 5781 5780 5779 5778 5776 5775 5774 5773 5772 5771 5770 5769 5768 5767 5765 5764 5764 5764 5764 5764 5765 5766 5767 5768 5770 5771 5773 5774 5775 5776 5777 5779 5780 5781 5783 5784 5785
5784 5783 5782 5781 5780 5779 5777 5776 5774 5772 5771 5769 5767 5766 5765 5764 5763 5762 5761 5760 5759 5758 5757 5757 5757 5757 5758 5759 5760 5762 5763 5765 5767 5768 5770 5771 5772 5773 5774 5775 5776 5777 5778
5783 5782 5780 5778 5777 5775 5773 5771 5769 5767 5765 5763 5761 5759 5758 5757 5756 5755 5754 5753 5752 5751 5750 5750 5750 5751 5752 5752 5753 5755 5757 5758 5760 5762 5764 5765 5766 5768 5769 5770 5770 5771 5771
5782 5779 5777 5775 5773 5771 5769 5767 5764 5762 5759 5757 5755 5753 5751 5750 5749 5748 5747 5746 5745 5744 5744 5744 5744 5744 5745 5746 5747 5748 5750 5752 5754 5756 5758 5759 5761 5762 5763 5764 5764 5765 5765
5781 5778 5776 5773 5771 5768 5765 5763 5760 5757 5755 5752 5750 5747 5745 5743 5742 5741 5739 5738 5737 5736 5736 5736 5737 5737 5738 5739 5740 5742 5744 5746 5748 5750 5752 5754 5755 5756 5757 5758 5758 5758 5758
5781 5778 5775 5772 5769 5766 5763 5760 5757 5754 5751 5748 5745 5743 5740 5738 5736 5734 5732 5731 5729 5729 5728 5728 5729 5730 5731 5733 5735 5737 5739 5741 5744 5746 5748 5749 5750 5751 5752 5752 5752 5752 5752
5783 5780 5776 5773 5770 5767 5763 5760 5756 5753 5749 5746 5742 5739 5735 5732 5730 5727 5725 5724 5722 5721 5720 5720 5720 5721 5723 5726 5728 5731 5734 5737 5739 5742 5743 5745 5746 5746 5747 5747 5747 5746 5746
5785 5782 5779 5775 5772 5768 5764 5760 5756 5752 5748 5744 5739 5735 5731 5728 5725 5723 5720 5718 5716 5714 5712 5711 5711 5712 5715 5718 5722 5726 5729 5733 5735 5737 5739 5741 5741 5742 5742 5742 5741 5740 5740
5788 5785 5782 5778 5774 5770 5766 5762 5757 5752 5747 5742 5737 5732 5728 5725 5722 5720 5717 5714 5712 5709 5706 5704 5704 5705 5707 5711 5716 5720 5725 5728 5731 5734 5735 5736 5737 5737 5737 5736 5736 5735 5734
5791 5788 5784 5781 5777 5773 5769 5764 5759 5753 5747 5742 5736 5730 5726 5723 5721 5719 5717 5713 5710 5707 5704 5701 5701 5701 5703 5707 5712 5717 5721 5725 5728 5731 5732 5733 5733 5733 5732 5731 5730 5729 5727
5794 5791 5787 5784 5780 5776 5771 5766 5761 5756 5750 5744 5738 5733 5728 5725 5723 5721 5719 5716 5712 5709 5707 5704 5703 5704 5705 5708 5712 5716 5720 5724 5727 5729 5730 5730 5730 5730 5729 5728 5726 5724 5722
5796 5793 5790 5786 5782 5778 5774 5769 5764 5759 5753 5748 5743 5738 5734 5730 5728 5726 5723 5721 5718 5715 5713 5711 5710 5710 5711 5714 5716 5719 5722 5725 5727 5728 5729 5729 5728 5727 5726 5724 5722 5719 5716
5799 5796 5792 5789 5785 5781 5777 5773 5768 5763 5758 5753 5749 5745 5741 5737 5735 5732 5729 5727 5725 5722 5720 5719 5718 5718 5718 5720 5721 5723 5725 5727 5728 5728 5728 5728 5727 5725 5724 5721 5719 5715 5712
5801 5798 5795 5792 5788 5784 5780 5777 5773 5768 5764 5759 5755 5752 5748 5745 5742 5740 5737 5734 5732 5730 5728 5727 5726 5725 5726 5726 5727 5728 5728 5729 5729 5729 5728 5727 5726 5724 5722 5719 5716 5712 5708
5803 5800 5797 5794 5791 5787 5784 5780 5777 5773 5769 5766 5762 5759 5755 5752 5750 5747 5744 5742 5740 5738 5736 5735 5734 5733 5732 5732 5732 5732 5732 5731 5731 5730 5729 5727 5725 5723 5721 5718 5714 5710 5706
5805 5802 5799 5796 5793 5790 5787 5784 5780 5777 5774 5771 5768 5765 5762 5759 5756 5754 5752 5749 5747 5745 5744 5742 5741 5739 5738 5737 5737 5736 5735 5734 5732 5731 5730 5728 5726 5723 5720 5717 5713 5709 5705
5806 5804 5801 5799 5796 5793 5790 5787 5784 5781 5778 5775 5772 5770 5767 5765 5762 5760 5757 5755 5753 5751 5749 5748 5746 5744 5743 5742 5740 5739 5738 5736 5735 5733 5731 5729 5727 5724 5720 5717 5713 5708 5704
5807 5805 5803 5800 5798 5795 5792 5789 5787 5784 5781 5778 5776 5773 5771 5769 5767 5764 5762 5760 5758 5756 5754 5752 5750 5748 5747 5745 5743 5742 5740 5738 5736 5734 5732 5730 5727 5724 5721 5717 5713 5708 5703
5808 5806 5804 5802 5799 5796 5794 5791 5789 5786 5784 5781 5779 5776 5774 5772 5770 5768 5766 5764 5762 5760 5758 5755 5753 5752 5750 5748 5746 5744 5742 5740 5738 5736 5733 5731 5728 5725 5721 5717 5713 5708 5704
5807 5806 5804 5802 5800 5797 5795 5792 5790 5788 5786 5783 5781 5779 5776 5774 5772 5771 5769 5767 5765 5763 5761 5759 5757 5755 5753 5751 5748 5746 5744 5742 5739 5737 5734 5731 5728 5725 5722 5718 5713 5709 5704